Regional Weather Roundup
Issued by NWS

Home | Current Version | Previous Version | Graphics & Text | Print | Product List | Glossary On
Versions: 1 2 3 4 5 6 7 8 9 10 11 12 13 14 15 16 17 18 19 20 21 22 23 24 25 26 27 28 29 30 31 32 33 34 35 36 37 38 39 40 41 42 43 44 45 46 47 48 49 50
877
ASUS44 KMEG 231310
RWRTN
TENNESSEE HOURLY STATE WEATHER ROUNDUP
NATIONAL WEATHER SERVICE MEMPHIS TN
700 AM CST THU NOV 23 2017

TNZ002-004-019-021-049-052-054-088>092-231400-
WEST TENNESSEE

CITY           SKY/WX    TMP DP  RH WIND       PRES   REMARKS
MEMPHIS INTL   CLOUDY    30  23  75 CALM      30.19S
NWS MEMPHIS      N/A     25 N/A N/A MISG        N/A
JACKSON        CLOUDY    23  21  92 CALM      30.19S
DYERSBURG      CLEAR     25  21  85 CALM      30.20S
SOMERVILLE     CLEAR     23  21  93 CALM      30.17S
COVINGTON      CLEAR     23  21  93 CALM      30.20S
UNION CITY     CLEAR     23  21  93 CALM      30.18S
BOLIVAR        CLEAR     23  21  93 CALM      30.17F
PARIS          CLEAR     23  23 100 CALM      30.16S
HUNTINGDON     CLEAR     25  23  93 CALM      30.17R
LEXINGTON      CLEAR     25  23  93 CALM      30.17S
SELMER         CLEAR     25  23  93 CALM      30.16S
SAVANNAH       CLEAR     23  21  93 CALM      30.17S FOG
$$

TNZ008-025-027-028-033-062-065-066-231400-
NORTH MIDDLE TENNESSEE

CITY           SKY/WX    TMP DP  RH WIND       PRES   REMARKS
NASHVILLE      PTCLDY    26  23  88 S5        30.17F WCI  20
PORTLAND       CLEAR     25  23  93 CALM      30.16R
CLARKSVILLE    CLOUDY    25  21  85 CALM      30.18S
SMYRNA         CLOUDY    24  22  91 CALM      30.19F
COOKEVILLE     CLEAR     23  21  93 CALM      30.14R
GALLATIN       CLEAR     25  23  93 CALM      30.20S
CROSSVILLE     CLEAR     25  22  88 E3        30.12S
$$

TNZ061-075-076-078-094-096-097-231400-
SOUTH MIDDLE TENNESSEE

CITY           SKY/WX    TMP DP  RH WIND       PRES   REMARKS
FAYETTEVILLE   CLEAR     28  25  86 N7        30.12S WCI  21
TULLAHOMA      CLEAR     28  25  86 E5        30.12S WCI  23
WINCHESTER     CLEAR     23  21  93 CALM      30.14S
MCMINNVILLE    CLEAR     25  23  93 N5        30.15R WCI  19
COLUMBIA       CLEAR     23  23 100 CALM      30.15F
SHELBYVILLE    CLEAR     25  23  93 CALM      30.16R
$$

TNZ017-018-042-046-047-231400-
NORTHEAST TENNESSEE

CITY           SKY/WX    TMP DP  RH WIND       PRES   REMARKS
TRI CITIES     CLEAR     25  23  92 CALM      30.14R
ELIZABETHTON   CLEAR     27  25  93 CALM      30.14R
$$

TNZ012-013-036-069-073-074-231400-
CENTRAL EAST TENNESSEE

CITY           SKY/WX    TMP DP  RH WIND       PRES   REMARKS
KNOXVILLE      PTCLDY    32  29  88 NE3       30.14R
OAK RIDGE      CLEAR     31  28  89 CALM      30.16R
DOWNTOWN KNOXV CLEAR     32  32 100 CALM      30.17R
GATLINBURG     CLEAR     27  25  93 CALM      30.16R
MORRISTOWN     CLEAR     30  25  80 CALM      30.13R
JACKSBORO      CLEAR     25  25 100 CALM      30.18S
$$

TNZ083-085-099-231400-
SOUTHEAST TENNESSEE

CITY           SKY/WX    TMP DP  RH WIND       PRES   REMARKS
CHATTANOOGA    CLEAR     31  28  89 S3        30.14R
DAYTON         MOSUNNY   27  27 100 CALM      30.13F
$$

SKY/WX REPORTED AS FAIR MEANS FEW OR NO CLOUDS BELOW
12 THOUSAND FEET.





USA.gov is the U.S. government's official web portal to all federal, state and local government web resources and services.